Location: Unspecified
(0.0000°N, 0.0000°E)
Time: 20:44:16
(UTC+02:00)

ARIANE DEB (SPELDA) - Visible Passes

Search period start: 06 May 2016 00:00
Search period end: 16 May 2016 00:00
Orbit: 317 x 33032 km, 3.8° (Epoch: 06 May)

Date Brightness Start Highest point End Pass type
(mag) Time Alt. Az. Time Alt. Az. Time Alt. Az.
06 May 5.9 14:26:54 10° W 16:16:44 62° W 23:16:21 80° SSE visible
08 May 6.0 14:53:47 10° W 16:41:53 54° W 23:39:24 74° SW visible
10 May 6.2 15:21:32 10° W 17:06:41 46° W 00:02:23 59° WSW visible
12 May 4.9 05:28:44 22° E 05:28:44 22° E 05:31:25 10° E visible
12 May 6.5 15:50:32 10° W 17:31:05 39° W 00:25:19 45° WSW visible
14 May 3.5 05:51:27 48° E 05:51:27 48° E 05:57:57 10° E visible
14 May 6.8 16:21:29 10° W 17:55:06 31° W 00:48:11 33° W visible
